This demonstration page uses our WeatherBlox Daily Observations layout. Learn more.

Left ArrowRight Arrow

36.17497, -115.13722

Hourly Observations for April 28, 2016

Temp ( °F °C ) Dew Point ( °F °C ) Humidity (%) Winds ( mph kmh ) Pressure ( in mb ) Visibility ( mi km ) Precip ( " mm )
12:53 am 00:53 Cloudy 57 13.9 39 3.9 51 51 N 21 33 29.62 1003 10 16.0934 0 0
1:53 am 01:53 Cloudy 57 13.9 38 3.3 49 49 NNW 16 26 29.61 1003 10 16.0934 0 0
2:53 am 02:53 Partly Cloudy 57 13.9 39 3.9 51 51 N 12 19 29.6 1003 10 16.0934 0 0
3:53 am 03:53 Cloudy with Light Rain 55 12.8 44 6.7 67 67 NW 10 17 29.62 1003 10 16.0934 0 0.0254
4:53 am 04:53 Cloudy 53 11.7 48 8.9 83 83 WNW 5 7 29.63 1003 10 16.0934 0.05 1.27
5:53 am 05:53 Cloudy 53 11.7 49 9.4 86 86 S 7 11 29.63 1004 10 16.0934 0.01 0.254
6:53 am 06:53 Cloudy 53 11.7 47 8.3 80 80 ENE 5 7 29.65 1004 10 16.0934 0 0
7:53 am 07:53 Sunny 54 12.2 48 8.9 80 80 SSW 6 9 29.66 1005 10 16.0934 0 0
8:53 am 08:53 Cloudy 58 14.4 47 8.3 67 67 VRB 5 7 29.66 1005 10 16.0934 0 0
9:53 am 09:53 Cloudy 60 15.6 45 7.2 58 58 E 8 13 29.67 1005 10 16.0934 0 0
10:53 am 10:53 Cloudy 61 16.1 44 6.7 54 54 ESE 5 7 29.69 1005 10 16.0934 0 0
11:53 am 11:53 Cloudy 65 18.3 38 3.3 37 37 NNW 12 19 29.7 1006 10 16.0934 0 0
12:53 pm 12:53 Mostly Cloudy 67 19.4 36 2.2 32 32 N 8 13 29.69 1005 10 16.0934 0 0
1:53 pm 13:53 Cloudy 64 17.8 45 7.2 50 50 E 12 19 29.7 1006 10 16.0934 0 0
2:53 pm 14:53 Sunny 65 18.3 44 6.7 47 47 E 12 19 29.7 1006 10 16.0934 0 0
3:53 pm 15:53 Mostly Cloudy 65 18.3 44 6.7 47 47 ESE 7 11 29.71 1006 10 16.0934 0 0
4:53 pm 16:53 Cloudy 66 18.9 44 6.7 45 45 undefined N/A 29.71 1006 10 16.0934 0 0
5:53 pm 17:53 Cloudy 58 14.4 50 10 75 75 E 8 13 29.76 1008 10 16.0934 0.13 3.302
6:53 pm 18:53 Mostly Cloudy 58 14.4 49 9.4 72 72 ESE 5 7 29.78 1009 10 16.0934 0 0
7:53 pm 19:53 Partly Cloudy 58 14.4 50 10 75 75 NNE 6 9 29.82 1010 10 16.0934 0 0
8:53 pm 20:53 Cloudy with Light Rain 57 13.9 51 10.6 81 81 WSW 8 13 29.83 1010 10 16.0934 0.05 1.27
9:53 pm 21:53 Mostly Cloudy 54 12.2 50 10 87 87 NE 5 7 29.85 1011 10 16.0934 0 0.0254
10:53 pm 22:53 Mostly Cloudy 57 13.9 48 8.9 72 72 NNW 8 13 29.85 1011 10 16.0934 0 0
11:53 pm 23:53 Cloudy 57 13.9 46 7.8 67 67 NNW 8 13 29.85 1011 10 16.0934 0 0

Powered by AerisWeather